EW4888 Weather Reports


Display with metric or nautical units.
time (UTC)temp
F
wind
direction
speed
MPH
gust
MPH
rain 1hr
in
rain 24hr
in
rain mn
in
humidity
%
barometer
mb
20180622185122 66 24 4.0 7.0 0.00 1.54 0.06 93 1006.3
20180622184122 66 26 3.0 8.0 0.00 1.54 0.06 93 1006.4
20180622183122 66 37 3.0 8.0 0.00 1.54 0.06 93 1006.4
20180622182122 67 38 4.0 7.0 0.00 1.54 0.06 93 1006.6
20180622181122 67 42 3.0 5.0 0.00 1.54 0.06 93 1006.6
20180622180122 67 39 4.0 6.0 0.00 1.54 0.06 93 1006.6
20180622175126 67 63 4.0 7.0 0.00 1.54 0.06 93 1006.6
20180622174122 67 43 5.0 8.0 0.00 1.54 0.06 93 1006.5
20180622173126 67 23 4.0 7.0 0.00 1.54 0.06 93 1006.5
20180622172122 67 159 4.0 8.0 0.00 1.54 0.06 93 1006.3
20180622171122 67 180 6.0 9.0 0.00 1.54 0.06 93 1006.4
20180622170122 67 180 5.0 8.0 0.00 1.54 0.06 93 1006.4
20180622165126 67 180 4.0 7.0 0.00 1.54 0.06 93 1006.3
20180622164122 67 180 5.0 8.0 0.00 1.54 0.06 93 1006.5
20180622163122 67 180 4.0 8.0 0.00 1.54 0.06 93 1006.4
20180622162122 67 180 6.0 9.0 0.00 1.54 0.06 93 1006.5
20180622161125 67 180 6.0 9.0 0.00 1.54 0.06 93 1006.4
20180622160122 66 180 7.0 10.0 0.00 1.54 0.06 93 1006.4
20180622155122 66 180 7.0 9.0 0.00 1.54 0.06 93 1006.4
20180622154122 66 180 6.0 9.0 0.00 1.54 0.06 93 1006.1
20180622153122 66 180 7.0 11.0 0.00 1.54 0.06 93 1006.1
20180622152122 66 180 7.0 10.0 0.00 1.54 0.06 93 1006.0
20180622151122 66 180 6.0 11.0 0.00 1.54 0.06 93 1006.1
20180622150122 66 180 6.0 8.0 0.00 1.54 0.06 93 1006.1
20180622145125 66 180 7.0 11.0 0.00 1.54 0.06 93 1006.2
20180622144122 66 180 6.0 9.0 0.00 1.54 0.06 93 1006.3
20180622143122 66 180 6.0 9.0 0.00 1.54 0.06 93 1006.2
20180622123122 65 180 2.0 4.0 0.01 1.54 0.06 93 1006.0
20180622122122 65 180 2.0 5.0 0.01 1.54 0.06 93 1006.1
20180622121122 64 178 2.0 4.0 0.00 1.53 0.05 93 1006.0
20180622120122 64 93 3.0 4.0 0.02 1.53 0.05 93 1006.0
20180622115125 64 62 3.0 4.0 0.04 1.53 0.05 93 1006.0
20180622114121 64 48 2.0 4.0 0.04 1.53 0.05 93 1006.0
20180622113122 64 37 2.0 4.0 0.05 1.53 0.05 93 1006.0
20180622112122 64 26 3.0 6.0 0.05 1.53 0.05 93 1005.9
20180622111122 64 138 3.0 5.0 0.05 1.53 0.05 93 1006.0
20180622110125 64 180 3.0 5.0 0.03 1.51 0.03 93 1006.0
20180622105122 64 175 3.0 5.0 0.01 1.49 0.01 93 1005.9
20180622104123 64 43 3.0 5.0 0.01 1.49 0.01 93 1005.7
20180622103131 64 28 4.0 6.0 0.00 1.48 0.00 93 1005.5
20180622102126 64 25 4.0 6.0 0.00 1.48 0.00 93 1005.6
20180622101122 64 27 4.0 6.0 0.00 1.48 0.00 93 1005.5
20180622100122 64 26 4.0 5.0 0.00 1.48 0.00 93 1005.5
20180622095122 64 30 5.0 9.0 0.00 1.48 0.00 93 1005.4
20180622094122 64 39 5.0 8.0 0.00 1.48 0.00 93 1005.5
20180622093122 64 29 6.0 9.0 0.00 1.48 0.00 93 1005.4
20180622092123 64 25 6.0 9.0 0.00 1.48 0.00 93 1005.4
20180622091122 64 37 5.0 7.0 0.00 1.48 0.00 93 1005.5
20180622090123 64 29 5.0 8.0 0.00 1.48 0.00 93 1005.5
20180622085122 64 29 5.0 8.0 0.00 1.48 0.00 93 1005.5
20180622084122 64 25 5.0 7.0 0.00 1.48 0.00 93 1005.5
20180622083122 64 33 6.0 9.0 0.00 1.48 0.00 93 1005.5
20180622082122 64 35 7.0 10.0 0.00 1.48 0.00 93 1005.4
20180622081122 64 35 6.0 9.0 0.00 1.48 0.00 93 1005.2
20180622080122 64 42 5.0 10.0 0.00 1.48 0.00 93 1005.2
20180622075124 64 41 5.0 7.0 0.00 1.48 0.00 93 1005.3
20180622074123 64 42 7.0 9.0 0.00 1.48 0.00 93 1005.2
20180622073122 64 42 7.0 9.0 0.00 1.48 0.00 93 1005.4
20180622072122 64 41 7.0 11.0 0.00 1.48 0.00 93 1005.4
20180622071122 64 49 8.0 10.0 0.00 1.48 0.00 93 1005.5
20180622070124 64 40 8.0 11.0 0.00 1.48 0.00 93 1005.5
20180622065122 65 42 7.0 10.0 0.00 1.48 0.00 93 1005.5
20180622064122 65 41 7.0 11.0 0.00 1.48 0.00 93 1005.7
20180622063122 65 37 0.0 5.0 0.00 1.48 0.00 93 1005.8
20180622062123 65 45 6.0 11.0 0.00 1.48 0.00 93 1005.8
20180622061123 66 45 7.0 9.0 0.00 1.48 0.00 93 1005.9
20180622060122 66 31 7.0 10.0 0.00 1.48 0.00 93 1005.9
20180622055122 67 40 7.0 10.0 0.00 1.48 0.00 93 1005.9
20180622054122 67 50 7.0 9.0 0.00 1.48 0.00 93 1006.1
20180622053124 67 40 5.0 8.0 0.00 1.48 0.00 93 1006.1
20180622052122 67 63 6.0 8.0 0.00 1.48 0.00 93 1006.1
20180622051122 67 47 5.0 8.0 0.00 1.48 0.00 93 1006.1
20180622050122 67 50 5.0 7.0 0.00 1.48 0.00 93 1006.1
20180622045122 67 26 4.0 6.0 0.00 1.48 1.48 93 1006.0
20180622044122 67 30 5.0 8.0 0.00 1.48 1.48 93 1006.1
20180622043124 67 22 5.0 8.0 0.00 1.48 1.48 93 1006.2
20180622042121 67 19 5.0 7.0 0.00 1.48 1.48 93 1006.3
20180622041122 67 21 5.0 7.0 0.00 1.49 1.48 93 1006.5
20180622040125 67 17 5.0 7.0 0.00 1.51 1.48 93 1006.5
20180622035122 67 47 5.0 7.0 0.00 1.51 1.48 93 1006.6
20180622034122 67 60 4.0 6.0 0.00 1.52 1.48 93 1006.7
20180622033122 67 61 4.0 5.0 0.00 1.54 1.48 93 1006.5
20180622032122 67 50 4.0 6.0 0.00 1.57 1.48 93 1006.5
20180622031124 67 49 5.0 7.0 0.00 1.57 1.48 93 1006.5
20180622030122 67 46 5.0 7.0 0.00 1.57 1.48 93 1006.5
20180622025122 67 62 3.0 6.0 0.99 1.57 1.48 93 1006.4
20180622024122 67 79 3.0 5.0 0.99 1.58 1.48 93 1006.3
20180622023122 67 80 4.0 7.0 0.99 1.61 1.48 93 1006.1
20180622022122 66 82 5.0 7.0 0.99 1.68 1.48 93 1006.1
20180622021125 66 52 4.0 6.0 0.99 1.70 1.48 93 1005.9
20180622020122 67 54 3.0 4.0 0.99 1.72 1.48 93 1005.9